Location: ????? ????
(37.9717°N, 23.4051°E)
Time: 04:13:47
(UTC+00:00)

Okean O Rocket - Visible Passes

Search period start: 13 July 2024 00:00
Search period end: 23 July 2024 00:00
Orbit: 617 x 640 km, 98.1° (Epoch: 12 July)

Date Brightness Start Highest point End Pass type
(mag) Time Alt. Az. Time Alt. Az. Time Alt. Az.
13 Jul 3.1 19:14:18 10° SSW 19:18:10 32° W 19:22:03 10° NNW visible
14 Jul 3.9 19:35:06 10° SW 19:38:13 19° W 19:41:21 10° NW visible
15 Jul 1.8 18:17:34 10° SSE 18:21:46 54° ENE 18:25:59 10° N visible
15 Jul 4.3 19:56:53 10° WSW 19:58:20 11° W 19:59:46 10° WNW visible
16 Jul 1.6 18:37:21 10° SSE 18:41:40 88° W 18:46:00 10° NNW visible
17 Jul 2.3 18:57:25 10° S 19:01:36 50° W 19:05:49 10° NNW visible
18 Jul 3.3 19:17:50 10° SSW 19:21:36 30° W 19:25:25 10° NW visible
19 Jul 4.0 19:38:43 10° SW 19:41:40 18° W 19:44:38 10° NW visible
20 Jul 1.7 18:20:56 10° SSE 18:25:10 59° ENE 18:29:25 10° N visible
20 Jul 4.5 20:00:56 10° WSW 20:01:46 10° W 20:02:36 10° W visible
21 Jul 1.6 18:40:45 10° S 18:45:03 81° WSW 18:49:24 10° NNW visible
22 Jul 2.5 19:00:52 10° S 19:05:00 46° W 19:09:11 10° NNW visible
